Ashland, WI

2:59 AM CDT on July 25, 2017 (GMT -0500)
Kennedy Memorial

Weather History for KASX - October, 2011

Change the Weather History Date:

Thursday, October 20, 2011

  Actual Average Record
Temperature  
Mean Temperature 38 °F -  
Max Temperature 48 °F 56 °F 85 °F (1953)
Min Temperature 28 °F 30 °F 17 °F (1952)
Degree Days  
Heating Degree Days 27    
Moisture  
Dew Point 32 °F    
Average Humidity 74    
Maximum Humidity 92    
Minimum Humidity 52    
Precipitation  
Precipitation 0.00 in - - ()
Sea Level Pressure  
Sea Level Pressure 29.97 in    
Wind  
Wind Speed 15 mph (North)    
Max Wind Speed 20 mph    
Max Gust Speed 29 mph    
Visibility 10 miles    
Events      
Averages and records for this station are not official NWS values.
T = Trace of Precipitation, MM = Missing Value Source: NWS Daily Summary

Daily Weather History Graph

Daily Weather History Graph

Search for Another Location

Airport or City:

Trip Planner

Search our weather history database for the weather conditions in past years. The results will help you decide how hot, cold, wet, or windy it might be!

Date:

Astronomy

Oct. 20, 2011 Rise Set
Actual Time 7:27 AM CDT 6:08 PM CDT
Civil Twilight 6:57 AM CDT 6:39 PM CDT
Nautical Twilight 6:22 AM CDT 7:14 PM CDT
Astronomical Twilight 5:47 AM CDT 7:48 PM CDT
Moon No Moon Rise 2:40 PM CDT (10/20)
Length of Visible Light 11h 41m
Length of Day
10h 40m
Last Quarter, 44% of the Moon is Illuminated
Oct 20
Last Quarter
Oct 26
New
Nov 2
First Quarter
Nov 10
Full
Nov 18
Last Quarter

Hourly Weather History & Observations

Time (CDT) Temp. Windchill Dew Point Humidity Pressure Visibility Wind Dir Wind Speed Gust Speed Precip Events Conditions
12:53 AM 42.1 °F 33.3 °F 37.0 °F 82% 30.04 in 10.0 mi NE 19.6 mph 27.6 mph N/A   Overcast
1:53 AM 42.1 °F 33.6 °F 37.0 °F 82% 30.03 in 10.0 mi NNE 18.4 mph 25.3 mph N/A   Overcast
2:53 AM 42.1 °F 33.6 °F 35.1 °F 76% 30.01 in 10.0 mi NE 18.4 mph 28.8 mph N/A   Overcast
3:53 AM 42.1 °F 34.5 °F 35.1 °F 76% 30.01 in 10.0 mi NE 15.0 mph 25.3 mph N/A   Overcast
4:53 AM 42.1 °F 33.9 °F 34.0 °F 73% 29.99 in 10.0 mi NNE 17.3 mph 28.8 mph N/A   Overcast
5:53 AM 41.0 °F 32.5 °F 34.0 °F 76% 29.99 in 10.0 mi NNE 17.3 mph 26.5 mph N/A   Overcast
6:53 AM 39.9 °F 31.1 °F 33.1 °F 77% 29.99 in 10.0 mi NNE 17.3 mph 25.3 mph N/A   Mostly Cloudy
7:53 AM 41.0 °F 32.5 °F 33.1 °F 73% 29.99 in 10.0 mi NNE 17.3 mph 26.5 mph N/A   Overcast
8:53 AM 41.0 °F 32.8 °F 32.0 °F 70% 29.97 in 10.0 mi NNE 16.1 mph 25.3 mph N/A   Overcast
9:53 AM 41.0 °F 34.3 °F 32.0 °F 70% 29.97 in 10.0 mi NNE 11.5 mph 21.9 mph N/A   Overcast
11:53 AM 43.0 °F 35.4 °F 33.1 °F 68% 29.96 in 10.0 mi North 16.1 mph - N/A   Overcast
12:29 PM 42.8 °F 35.8 °F 32.0 °F 66% 29.94 in 10.0 mi NNE 13.8 mph - N/A   Overcast
12:53 PM 43.0 °F 35.4 °F 32.0 °F 65% 29.96 in 10.0 mi NNE 16.1 mph - N/A   Overcast
1:53 PM 46.0 °F 39.6 °F 34.0 °F 63% 29.94 in 10.0 mi NE 15.0 mph - N/A   Partly Cloudy
3:53 PM 48.0 °F - 30.9 °F 52% 29.92 in 10.0 mi North 6.9 mph - N/A   Clear
4:53 PM 46.9 °F - 30.0 °F 52% 29.92 in 10.0 mi North 5.8 mph - N/A   Clear
5:53 PM 41.0 °F 38.0 °F 30.0 °F 65% 29.94 in 10.0 mi ENE 4.6 mph - N/A   Clear
7:53 PM 32.0 °F 28.7 °F 28.9 °F 88% 29.96 in 10.0 mi West 3.5 mph - N/A   Clear
8:53 PM 32.0 °F 28.7 °F 28.0 °F 85% 29.96 in 10.0 mi WNW 3.5 mph - N/A   Clear
9:53 PM 28.9 °F 23.9 °F 27.0 °F 92% 29.97 in 10.0 mi West 4.6 mph - N/A   Clear
10:53 PM 30.9 °F 26.2 °F 27.0 °F 85% 29.96 in 10.0 mi WNW 4.6 mph - N/A   Clear
11:53 PM 28.9 °F 25.2 °F 26.1 °F 89% 29.96 in 10.0 mi WNW 3.5 mph - N/A   Clear